Terminal Aerodrome Forecast
Issued by NWS

Home | Current Version | Previous Version | Text Only | Print | Product List | Glossary On
Versions: 1 2 3 4 5 6 7 8 9 10 11 12 13 14 15 16 17 18 19 20 21 22 23 24 25 26 27 28 29 30 31 32 33
000
FTUS43 KPAH 270500
TAFOWB
TAF
KOWB 270520Z 2706/2806 20006KT P6SM BKN120
     FM271400 26014G22KT P6SM SCT035 BKN150
     FM272300 29014G24KT P6SM SKC
     FM280100 30010KT P6SM SKC=

USA.gov is the U.S. government's official web portal to all federal, state and local government web resources and services.